Bridgeport, WV

11:53 PM EDT on August 29, 2016 (GMT -0400)
Benedum

Weather History for KCKB - September, 2012

Change the Weather History Date:

Friday, September 21, 2012

  Actual Average Record
Temperature  
Mean Temperature 65 °F -  
Max Temperature 75 °F 76 °F 90 °F (1940)
Min Temperature 55 °F 53 °F 30 °F (1962)
Growing Degree Days 15 (Base 50)    
Moisture  
Dew Point 55 °F    
Average Humidity 69    
Maximum Humidity 90    
Minimum Humidity 46    
Precipitation  
Precipitation 0.00 in - - ()
Sea Level Pressure  
Sea Level Pressure 29.95 in    
Wind  
Wind Speed 3 mph (SW)    
Max Wind Speed 12 mph    
Max Gust Speed 20 mph    
Visibility 10 miles    
Events      
Averages and records for this station are not official NWS values.
T = Trace of Precipitation, MM = Missing Value Source: NWS Daily Summary

Daily Weather History Graph

Daily Weather History Graph

Search for Another Location

Airport or City:

Trip Planner

Search our weather history database for the weather conditions in past years. The results will help you decide how hot, cold, wet, or windy it might be!

Date:

Astronomy

Sep. 21, 2012 Rise Set
Actual Time 7:08 AM EDT 7:18 PM EDT
Civil Twilight 6:41 AM EDT 7:45 PM EDT
Nautical Twilight 6:09 AM EDT 8:16 PM EDT
Astronomical Twilight 5:38 AM EDT 8:48 PM EDT
Moon 1:25 PM EDT (9/21) 11:20 PM EDT (9/21)
Length of Visible Light 13h 04m
Length of Day
12h 10m
Waxing Crescent, 37% of the Moon is Illuminated
Sep 21
Waxing Crescent
Sep 22
First Quarter
Sep 29
Full
Oct 8
Last Quarter
Oct 15
New

Hourly Weather History & Observations

Time (EDT) Temp. Dew Point Humidity Pressure Visibility Wind Dir Wind Speed Gust Speed Precip Events Conditions
12:53 AM 55.0 °F 51.1 °F 86% 30.00 in 10.0 mi Calm Calm - N/A   Partly Cloudy
1:53 AM 59.0 °F 52.0 °F 78% 29.99 in 10.0 mi Calm Calm - N/A   Mostly Cloudy
2:53 AM 57.9 °F 53.1 °F 84% 29.99 in 10.0 mi Calm Calm - N/A   Overcast
3:53 AM 60.1 °F 53.1 °F 78% 29.98 in 10.0 mi Calm Calm - N/A   Clear
4:53 AM 55.9 °F 53.1 °F 90% 29.99 in 10.0 mi Calm Calm - N/A   Partly Cloudy
5:53 AM 60.1 °F 53.1 °F 78% 29.99 in 10.0 mi Calm Calm - N/A   Scattered Clouds
6:53 AM 59.0 °F 53.1 °F 81% 30.01 in 10.0 mi Calm Calm - N/A   Partly Cloudy
7:53 AM 62.1 °F 55.0 °F 78% 30.01 in 10.0 mi Calm Calm - N/A   Overcast
8:53 AM 64.0 °F 55.9 °F 75% 30.01 in 10.0 mi South 9.2 mph - N/A   Overcast
9:53 AM 69.1 °F 57.0 °F 65% 30.01 in 10.0 mi SW 10.4 mph - N/A   Clear
10:53 AM 71.1 °F 57.0 °F 61% 30.01 in 10.0 mi SW 9.2 mph - N/A   Partly Cloudy
11:53 AM 73.0 °F 55.9 °F 55% 30.00 in 10.0 mi WSW 9.2 mph - N/A   Partly Cloudy
12:53 PM 73.0 °F 55.0 °F 53% 29.98 in 10.0 mi WSW 10.4 mph 17.3 mph N/A   Scattered Clouds
1:53 PM 73.0 °F 55.0 °F 53% 29.98 in 10.0 mi SW 9.2 mph - N/A   Overcast
2:53 PM 75.9 °F 55.9 °F 50% 29.95 in 10.0 mi SW 11.5 mph 16.1 mph N/A   Scattered Clouds
3:53 PM 75.0 °F 54.0 °F 48% 29.94 in 10.0 mi West 8.1 mph - N/A   Mostly Cloudy
4:53 PM 75.0 °F 53.1 °F 46% 29.93 in 10.0 mi West 9.2 mph 19.6 mph N/A   Scattered Clouds
5:53 PM 72.0 °F 53.1 °F 51% 29.92 in 10.0 mi SW 8.1 mph - N/A   Clear
6:53 PM 70.0 °F 55.0 °F 59% 29.90 in 10.0 mi SSE 3.5 mph - N/A   Clear
7:53 PM 66.9 °F 55.9 °F 68% 29.89 in 10.0 mi Calm Calm - N/A   Clear
8:53 PM 64.0 °F 57.9 °F 80% 29.89 in 10.0 mi Calm Calm - N/A   Clear
9:53 PM 63.0 °F 57.0 °F 81% 29.86 in 10.0 mi Calm Calm - N/A   Partly Cloudy
10:53 PM 64.0 °F 55.9 °F 75% 29.83 in 10.0 mi SSE 4.6 mph - N/A   Scattered Clouds
11:53 PM 63.0 °F 55.0 °F 75% 29.82 in 10.0 mi South 4.6 mph - N/A   Clear